GFSSW_prec_cthk_273.txt.gz
RH
10 9 7 7 7 8 10 11 11 11 11 10 9 8 6 5 9 14 22 30 37 35 37 39 38 34 38 42 54 57 58 62 57 59 54 47 58 64 60 53 55 53 46 47 51
12 11 9 8 7 7 7 8 9 9 10 9 8 7 6 5 7 11 19 29 34 34 36 39 42 38 41 46 51 55 57 60 58 58 55 46 49 60 59 52 53 55 47 44 49
13 12 12 10 9 8 7 7 7 7 7 8 7 7 6 5 6 12 17 28 31 33 42 40 32 35 42 46 53 58 56 58 58 57 55 44 47 60 54 60 45 48 46 46 47
13 13 12 12 11 10 9 8 7 7 7 6 6 6 6 5 9 12 16 27 31 33 45 37 38 37 44 49 54 56 55 55 55 55 49 46 49 50 53 69 43 46 42 46 44
14 13 12 12 11 11 10 9 8 7 7 6 6 6 6 6 8 13 17 27 32 34 45 38 34 36 45 52 54 56 56 56 56 53 47 45 47 50 48 40 41 43 43 44 44
15 14 13 12 11 11 10 9 9 8 7 7 6 6 6 6 7 11 16 23 31 38 44 35 34 33 40 46 51 56 56 55 56 53 48 48 51 52 45 41 36 41 43 44 46
16 15 14 13 12 11 11 10 9 8 7 7 6 6 6 5 8 11 15 20 29 38 44 34 30 32 40 51 53 54 52 52 50 49 46 49 50 50 46 39 37 36 42 45 48
17 16 14 13 13 12 11 10 10 9 8 7 6 6 5 5 6 11 14 18 28 36 43 34 31 40 43 50 50 51 49 50 47 46 45 46 44 48 48 40 39 37 38 44 46
18 17 15 14 13 13 11 11 10 9 8 7 6 6 6 5 6 8 12 16 24 31 40 34 33 37 41 48 45 48 47 48 47 46 42 46 43 45 48 45 38 39 38 40 43
18 18 16 15 13 13 12 12 10 9 9 8 7 7 5 6 5 7 11 14 19 27 36 38 34 31 39 47 44 43 46 48 52 50 50 52 52 50 48 48 47 42 42 41 39
18 17 16 16 14 13 13 12 12 12 11 8 6 6 6 7 6 5 9 12 15 21 30 38 31 26 32 43 42 45 44 46 50 53 52 53 52 51 52 51 46 46 44 43 44
19 17 15 14 14 14 15 14 14 15 13 10 9 8 8 8 7 6 7 10 13 19 25 34 30 28 35 44 45 45 47 46 47 49 50 52 51 50 52 52 50 47 46 44 46
21 18 16 14 12 13 15 17 17 15 15 11 10 9 8 8 8 7 7 9 11 16 21 28 31 26 37 46 45 50 50 48 45 49 51 50 47 46 47 50 50 49 47 46 45
22 20 18 15 13 13 16 16 18 17 14 10 9 9 8 9 8 7 7 7 8 13 19 24 30 29 37 42 44 47 48 48 48 50 48 51 45 43 44 44 45 48 48 47 46
22 21 19 16 15 14 17 17 17 16 12 12 12 11 10 9 8 8 8 7 7 8 14 21 26 30 35 41 43 46 49 50 50 48 47 48 45 37 39 38 40 40 43 45 47
23 21 19 17 14 13 16 19 18 14 12 16 15 14 11 10 9 9 9 8 8 10 9 15 22 27 32 36 40 47 47 47 46 45 43 45 45 34 35 36 37 39 41 45 48
25 22 19 17 15 14 18 19 18 15 14 20 18 16 14 10 10 9 9 9 9 11 13 13 16 19 26 31 36 43 47 48 45 42 40 45 44 32 32 35 37 39 41 43 47
26 23 19 17 15 14 20 20 21 14 21 21 19 18 15 11 10 10 9 9 9 11 13 15 18 18 24 28 31 39 44 47 48 43 42 45 40 30 33 32 36 39 42 43 45
28 24 22 20 16 14 21 23 19 17 24 21 22 20 18 13 10 10 10 9 9 9 11 13 15 16 24 30 30 34 45 43 44 47 43 38 35 33 32 34 35 37 40 43 45
26 26 28 24 19 17 21 22 20 19 24 22 26 23 22 18 14 10 10 9 8 8 8 10 12 11 20 30 32 33 43 43 44 47 44 36 38 36 34 33 34 33 35 41 47
27 31 27 24 23 23 21 20 20 19 26 23 26 25 25 23 18 13 11 9 8 8 8 9 10 11 18 24 29 32 40 40 36 36 36 36 31 35 36 33 34 33 34 36 44
30 37 30 25 26 29 25 21 19 18 24 23 26 29 28 26 21 16 12 10 9 9 9 9 10 12 15 21 27 35 39 39 33 34 36 36 27 30 32 32 33 33 35 32 37
34 41 35 30 27 28 26 24 21 22 28 26 26 30 30 29 25 20 19 18 13 10 10 10 10 11 13 18 24 26 35 38 33 33 34 32 23 30 32 32 34 35 36 34 38
36 46 44 36 38 35 35 33 29 26 29 32 31 30 32 31 28 25 22 23 18 13 11 11 11 10 11 15 21 28 32 35 35 33 31 30 26 27 30 34 34 35 37 38 38
41 50 55 49 44 46 45 40 35 30 32 39 36 36 35 38 28 26 24 25 26 19 15 12 11 12 13 15 19 26 28 33 34 30 30 28 29 29 29 29 32 34 33 38 40
49 46 52 53 55 53 51 45 39 34 36 46 45 44 40 41 31 31 29 28 31 25 16 15 16 15 14 14 17 20 24 26 28 30 29 28 27 26 28 32 26 32 36 38 39
56 46 49 50 56 57 50 47 42 37 34 46 54 51 46 41 39 35 33 32 34 33 26 18 18 18 17 19 21 22 23 24 25 25 26 26 26 25 30 33 30 34 33 36 37

GFSSW_prec_cthk_276.txt.gz
RH
9 8 7 7 6 7 8 10 10 11 10 10 9 7 6 6 10 14 20 26 33 35 36 33 37 40 40 51 56 59 61 62 59 61 58 44 47 68 54 47 51 51 47 49 52
11 10 9 8 7 7 6 7 7 8 8 8 8 7 6 5 7 12 18 29 34 35 34 32 36 39 44 49 55 57 61 59 57 60 59 48 47 59 60 61 50 50 45 47 50
12 11 11 10 9 8 7 6 6 6 6 6 6 6 6 5 6 11 16 26 33 33 31 29 33 37 42 47 53 55 54 55 56 55 53 46 44 44 53 66 49 47 45 49 51
13 12 12 11 10 9 8 7 6 6 6 6 6 5 5 5 8 10 15 25 32 30 33 32 32 40 48 52 53 55 52 54 55 51 48 49 48 48 52 52 45 44 42 45 46
15 13 12 11 11 10 9 8 7 7 6 6 6 5 5 6 7 10 15 25 30 30 34 32 32 39 48 49 53 54 54 55 55 52 49 48 50 52 47 37 38 40 39 42 46
16 15 13 12 11 11 10 9 8 7 7 7 6 5 6 6 6 10 15 24 30 31 37 33 31 34 44 47 51 51 52 51 50 48 47 49 49 52 43 37 33 36 39 42 43
16 15 14 13 12 11 10 10 9 8 7 7 7 6 6 6 6 9 14 21 27 31 37 28 28 33 43 53 50 49 48 48 44 42 43 48 49 50 42 37 33 35 38 41 43
17 16 14 13 13 12 10 10 9 9 8 7 7 6 6 5 6 9 13 18 26 30 35 28 29 37 47 50 50 48 48 48 42 40 39 45 49 44 44 36 35 35 38 41 44
18 16 15 14 13 12 11 10 10 9 8 7 7 7 6 5 5 9 12 15 22 27 32 31 28 35 44 53 49 45 48 46 45 43 44 48 46 44 45 45 40 37 40 41 44
19 17 16 14 13 12 11 11 11 10 9 8 7 7 6 7 6 7 11 13 18 23 29 35 28 32 43 45 48 43 44 48 50 48 48 51 44 47 48 49 48 44 38 41 43
19 18 16 15 14 12 12 12 13 14 11 9 7 7 7 7 6 7 9 12 14 20 25 31 34 33 38 42 44 43 43 48 49 50 51 47 46 48 51 51 48 50 46 42 43
19 18 17 15 13 12 14 16 14 14 13 11 9 8 7 8 7 7 9 11 12 16 21 27 35 36 30 36 40 41 46 48 48 47 48 48 45 46 47 49 51 52 50 47 48
20 18 17 15 12 12 14 17 16 16 14 12 10 9 8 8 8 8 7 10 11 12 15 24 34 35 27 36 41 43 47 50 48 45 46 46 46 44 44 44 47 51 52 51 50
21 20 18 15 13 12 15 15 16 17 15 11 10 9 9 8 8 8 6 8 10 12 14 17 30 29 26 33 41 42 45 48 48 47 50 43 43 41 40 42 44 46 49 53 55
22 20 19 17 14 14 15 16 16 15 14 12 12 11 9 8 9 8 7 8 10 9 12 15 20 25 30 34 39 44 45 47 47 46 42 46 43 38 34 39 40 44 49 53 56
24 21 19 18 14 13 14 17 17 15 12 15 15 13 10 9 8 9 8 7 8 8 9 11 19 26 27 35 37 37 44 45 44 42 44 43 38 37 35 34 37 39 46 49 50
25 23 19 18 18 13 16 19 17 15 12 16 16 14 12 10 9 9 9 8 8 10 11 8 14 19 24 32 33 35 42 45 49 46 42 37 36 37 34 32 33 39 43 45 48
27 24 20 17 16 13 17 19 20 14 17 17 15 15 15 11 10 9 10 9 8 10 12 12 11 15 17 24 30 31 39 37 51 47 42 39 39 37 32 34 35 38 42 45 45
28 24 22 21 17 14 19 21 18 14 19 17 17 15 16 13 11 10 9 10 10 9 12 15 14 16 15 16 24 32 35 36 39 35 36 34 36 33 33 36 35 37 39 43 44
29 25 28 24 20 17 20 21 20 15 20 18 21 19 19 15 11 11 10 9 10 9 10 14 14 16 17 19 23 29 35 38 38 40 39 32 34 34 36 37 36 36 37 38 43
29 30 28 24 22 23 22 21 20 17 20 19 21 20 21 20 16 14 10 10 8 9 9 10 9 13 15 16 24 29 27 33 33 32 30 29 28 33 32 34 35 36 38 34 41
33 35 30 25 25 25 24 22 20 17 19 20 21 21 24 24 21 17 14 12 9 9 9 9 9 13 13 12 21 31 27 33 37 34 33 30 26 26 31 31 32 35 39 37 40
39 37 32 28 27 26 25 22 19 18 19 22 22 23 27 27 26 20 17 14 11 10 10 9 8 12 13 14 15 19 26 33 34 31 31 29 26 29 29 30 32 34 37 40 39
42 44 38 33 32 29 28 28 28 25 23 25 25 26 29 31 29 27 22 20 19 13 11 11 9 10 13 13 14 18 21 26 34 33 28 29 27 29 32 32 32 33 35 38 41
46 51 49 38 34 36 36 36 33 31 27 28 29 29 33 38 33 30 26 25 25 18 12 11 12 12 12 11 14 20 21 27 30 29 29 28 25 28 30 33 32 34 36 36 41
54 51 48 48 47 42 45 42 40 36 30 30 37 40 39 38 37 35 36 34 38 23 17 13 15 14 13 12 13 15 22 28 31 31 28 27 25 21 27 27 30 32 33 39 43
59 55 50 46 48 50 52 47 46 41 32 34 45 42 44 43 39 38 36 36 37 34 24 18 16 16 18 16 14 14 15 17 23 24 23 24 23 26 26 27 31 32 34 37 39

GFSSW_prec_cthk_279.txt.gz
RH
8 7 7 6 6 6 7 8 9 10 10 9 8 7 6 5 9 14 19 19 33 32 32 37 37 38 46 52 51 57 81 68 56 74 64 50 56 54 49 49 48 45 48 49 54
10 9 8 7 7 6 6 6 6 6 7 7 7 6 5 4 6 12 13 21 31 30 32 38 38 39 47 54 54 53 63 55 54 57 59 48 53 48 59 51 57 44 44 48 51
11 10 10 9 8 7 7 6 6 6 6 5 5 5 5 4 6 11 12 20 30 29 30 33 34 36 44 47 58 57 55 55 55 45 47 48 53 44 67 56 64 47 43 48 50
12 11 10 10 9 8 8 7 6 6 6 6 5 5 5 4 12 9 11 22 29 29 30 34 32 41 57 57 49 62 51 53 53 47 52 52 51 56 61 53 47 44 41 45 51
14 12 11 10 10 9 8 8 7 6 6 6 5 5 5 7 6 7 10 19 29 26 31 32 36 45 51 49 48 49 52 50 51 46 47 45 51 53 50 34 45 40 40 47 48
14 14 12 11 10 9 9 8 8 7 6 6 6 5 6 7 7 6 11 17 25 30 30 31 37 35 41 46 50 45 44 47 45 43 44 52 49 56 41 36 39 36 39 44 45
16 14 13 12 11 10 9 8 8 8 7 7 6 6 6 7 5 7 11 16 23 29 30 32 27 29 39 51 44 44 50 44 41 43 41 56 55 53 36 36 40 41 39 42 45
17 16 14 13 12 11 9 9 8 8 7 7 6 6 8 5 5 6 9 14 21 25 28 24 26 31 41 41 44 49 56 54 37 36 39 50 62 43 42 38 39 42 45 43 43
18 17 15 14 12 11 10 10 9 8 8 7 7 8 8 5 4 6 9 13 18 24 29 27 28 32 37 49 64 50 49 48 48 41 44 49 53 44 43 46 44 42 45 44 46
18 17 16 14 13 11 10 11 10 9 8 7 8 9 7 6 6 7 9 11 16 21 24 29 29 33 37 43 54 46 43 50 49 46 45 48 49 51 49 45 48 42 44 45 48
19 18 16 14 13 12 11 12 15 18 14 11 11 7 7 7 7 6 8 10 12 18 20 31 40 35 31 42 41 40 39 47 48 42 42 49 48 49 50 47 48 47 42 48 48
18 17 16 14 12 12 13 17 17 17 14 11 10 9 7 8 8 7 8 10 11 14 18 30 36 38 33 35 32 37 43 52 47 42 39 47 50 47 42 46 48 51 49 48 48
19 18 16 14 12 12 14 18 16 16 14 13 10 9 8 8 7 8 8 10 13 13 18 23 34 36 37 29 35 35 43 44 44 42 42 51 52 54 41 43 46 48 54 55 55
21 18 17 14 14 14 16 15 15 17 17 15 9 9 9 8 7 8 8 10 12 12 14 18 22 36 38 29 34 35 43 40 40 42 69 50 59 59 48 39 43 46 51 54 56
22 19 18 16 14 15 17 14 14 16 20 15 13 12 9 8 9 7 8 7 10 10 12 14 16 26 33 33 34 38 39 41 40 40 41 47 49 52 45 48 43 46 54 54 57
24 21 19 18 16 14 13 15 16 15 16 16 14 10 10 8 8 10 8 7 8 10 10 10 15 18 30 32 36 32 34 38 39 38 40 64 39 54 71 40 39 42 48 52 55
26 23 20 17 22 15 14 18 18 17 15 14 13 13 11 10 9 10 10 8 8 8 8 9 9 16 21 27 34 30 33 37 42 46 63 46 36 43 41 37 36 38 40 45 51
26 24 21 17 18 14 15 19 24 18 16 19 16 15 13 11 10 10 10 9 8 8 10 11 11 8 18 24 33 34 34 30 39 46 47 39 39 40 38 37 30 33 37 42 46
27 27 22 23 17 15 17 19 19 20 19 20 16 14 14 14 11 10 9 10 10 8 10 12 13 14 13 19 22 33 31 29 27 23 30 24 37 29 36 46 40 38 39 36 40
29 27 27 25 21 17 18 21 25 23 22 18 16 18 21 16 12 12 12 10 11 11 10 13 17 16 18 16 16 22 29 30 27 30 28 38 31 27 33 40 34 42 38 37 41
33 30 32 25 23 22 20 20 24 22 17 18 21 24 20 24 15 12 13 12 10 11 11 10 14 15 16 17 20 21 26 29 31 43 30 22 33 44 35 37 33 43 39 37 36
39 35 35 25 24 24 24 24 25 21 18 16 18 20 21 24 25 16 20 13 12 10 11 10 11 13 16 16 17 25 27 27 27 29 23 24 22 21 29 34 30 36 39 37 37
44 39 37 28 29 29 26 28 24 20 16 17 18 19 24 27 28 25 24 18 14 11 11 11 10 12 13 16 16 14 25 30 24 25 29 30 23 29 31 35 29 35 38 38 41
46 43 40 31 31 34 33 27 23 21 19 21 22 26 28 29 28 30 27 22 16 12 11 12 11 11 12 14 14 17 21 27 27 25 26 24 20 25 27 38 40 35 39 40 41
49 47 64 40 32 32 34 36 35 33 28 23 24 25 27 34 36 34 32 30 24 19 13 11 12 13 12 12 14 16 18 21 25 27 27 27 28 26 27 27 43 37 40 41 43
56 52 52 46 52 42 41 40 41 38 37 35 26 35 29 37 44 40 30 28 35 27 16 14 13 16 16 15 13 13 15 17 21 23 26 26 26 25 25 26 31 32 38 41 42
59 55 52 48 45 48 48 45 47 47 45 35 50 45 49 46 45 50 44 44 42 47 24 18 18 18 18 17 15 14 14 18 20 23 26 27 26 23 23 25 32 38 35 40 43

GFSSW_prec_cthk_285.txt.gz
RH
8 7 6 6 6 6 6 6 6 6 6 6 6 6 5 4 3 6 10 14 20 23 28 31 37 40 50 66 70 67 72 72 59 59 66 56 50 48 60 45 39 38 42 46 47
9 8 8 7 7 7 6 6 6 5 5 5 5 5 4 4 3 3 9 12 17 21 28 30 35 38 51 59 66 69 71 71 51 45 55 63 55 51 51 54 44 40 45 46 45
10 9 8 8 7 7 7 6 6 6 5 5 4 4 4 3 4 5 8 11 15 22 28 34 39 47 51 57 53 57 52 50 51 42 61 63 46 54 63 58 57 44 41 44 44
11 10 9 8 8 8 7 6 6 6 5 5 4 4 4 3 12 8 8 9 12 23 27 32 35 44 49 51 46 47 51 46 44 39 62 55 50 51 47 39 40 41 38 42 43
12 11 10 9 8 8 7 7 6 6 5 5 5 4 4 5 6 7 7 7 10 21 26 33 34 37 48 50 58 53 55 58 47 38 52 54 49 36 39 38 42 40 39 44 45
14 13 11 10 8 8 7 7 6 6 6 5 5 5 4 6 7 6 6 7 11 21 24 28 30 36 44 51 63 54 54 40 42 49 49 50 48 41 44 42 41 37 40 42 44
15 14 12 11 10 8 7 7 6 6 6 6 5 5 5 4 6 5 6 7 11 20 21 28 31 32 33 45 50 45 51 44 45 48 50 46 53 46 46 38 35 36 39 43 44
15 14 13 12 11 10 8 7 6 6 6 6 6 5 4 4 4 5 4 7 10 16 22 29 28 29 38 43 40 45 46 52 49 45 47 52 58 45 45 38 36 38 40 41 44
16 15 13 12 11 10 9 8 7 7 7 7 6 8 6 5 5 5 4 6 9 13 18 22 22 33 34 43 50 46 55 53 54 49 48 52 59 51 48 40 39 40 40 40 46
17 15 14 13 12 10 9 8 9 11 10 8 7 8 7 5 6 5 4 5 8 11 15 19 26 35 37 43 49 49 53 57 54 51 49 59 65 47 57 47 45 41 43 40 42
17 16 14 13 12 10 9 14 16 17 15 14 10 7 7 7 6 5 4 6 9 12 16 17 23 32 35 41 43 36 46 51 47 48 47 63 69 73 67 69 58 47 45 46 45
17 17 15 13 12 10 10 15 17 17 13 13 10 10 8 8 7 6 6 7 9 12 15 18 23 33 40 43 39 34 37 52 46 45 51 64 63 59 69 61 60 56 46 47 45
17 17 15 13 12 14 13 13 15 14 15 10 8 8 9 9 7 7 7 7 9 11 14 17 21 27 35 37 38 29 33 46 46 48 55 65 64 59 61 57 50 52 50 44 44
17 17 16 13 13 16 18 19 15 15 18 12 11 9 9 10 8 6 7 7 8 10 12 13 15 20 24 30 32 30 32 39 37 49 66 59 63 48 43 45 46 45 50 49 47
16 17 18 16 13 17 17 16 12 16 29 15 14 12 11 10 8 8 6 8 8 9 12 13 14 17 19 24 30 35 33 32 38 55 59 59 68 54 46 42 38 42 46 49 48
17 17 18 17 14 13 14 12 14 19 20 16 15 15 13 12 9 9 9 7 8 9 11 12 13 14 13 16 27 29 30 31 40 49 66 70 65 51 52 45 42 43 49 53 49
17 18 19 17 15 17 15 14 20 22 16 18 17 15 14 12 10 10 10 9 10 10 9 10 9 10 12 12 17 23 31 32 42 60 68 58 61 53 52 50 53 49 63 55 55
17 17 19 18 16 16 14 18 25 15 19 20 22 19 14 12 12 10 10 11 9 9 10 11 11 9 10 10 11 17 28 36 39 55 62 55 56 47 51 51 41 41 44 56 74
17 18 19 18 18 15 16 21 17 23 24 23 24 23 20 17 14 12 12 11 11 10 9 9 9 11 13 13 12 11 20 26 33 32 50 57 57 46 48 57 52 45 35 36 40
20 22 21 19 23 19 21 17 15 24 24 24 27 26 24 22 21 17 13 11 11 12 11 8 10 11 14 14 13 11 13 29 35 37 43 56 52 50 42 48 45 33 26 30 34
27 34 28 24 25 22 22 16 14 26 24 27 26 25 22 27 27 24 19 15 12 12 12 11 11 12 14 16 15 15 13 20 26 32 40 58 57 42 43 45 45 36 33 31 31
31 38 37 35 31 24 21 17 17 25 25 33 22 21 25 26 29 27 25 19 14 14 14 13 13 13 14 15 15 18 17 17 24 27 32 44 50 40 43 46 55 56 42 37 34
37 41 38 40 37 27 23 22 22 25 28 32 25 19 24 23 28 28 28 20 19 14 15 13 15 16 13 13 14 16 17 15 22 24 28 37 42 35 40 44 51 50 49 35 32
40 46 52 42 36 31 31 30 33 31 27 26 23 19 19 25 27 30 31 25 24 20 16 15 13 14 17 14 14 15 17 17 19 25 25 34 39 42 42 46 55 43 38 33 33
45 52 57 55 50 45 43 42 37 41 39 29 27 18 19 22 27 27 30 27 30 27 23 19 15 13 13 13 13 13 13 15 17 17 20 34 37 39 40 49 46 45 40 36 37
49 58 57 54 53 46 47 49 39 46 49 45 38 34 25 23 24 28 31 39 40 39 34 31 23 14 15 13 13 14 13 13 15 16 15 26 32 31 32 34 36 39 37 40 34
55 58 58 55 59 58 48 46 46 51 46 48 49 44 42 33 37 34 39 37 38 43 44 38 36 28 17 13 13 16 14 14 14 14 16 17 20 27 31 31 31 36 40 43 42

GFSSW_prec_cthk_288.txt.gz
RH
8 8 7 7 6 7 7 6 6 6 6 6 5 5 4 4 3 4 9 14 26 29 32 40 51 54 65 60 61 59 71 77 60 59 66 65 57 57 56 54 49 48 45 44 50
9 8 8 7 7 7 6 6 6 6 5 5 5 4 4 3 3 3 7 12 19 26 34 42 56 59 64 68 63 62 62 58 54 57 65 57 57 61 60 59 55 44 46 45 50
9 9 8 8 7 7 6 6 6 6 5 5 5 4 3 3 7 7 7 12 16 28 38 46 53 54 57 61 68 62 58 49 54 59 57 57 57 56 60 55 51 43 41 45 49
11 9 8 8 7 7 6 6 6 5 5 5 5 4 4 3 10 7 8 10 13 26 35 38 46 50 52 57 56 56 60 53 46 55 59 54 50 44 37 42 44 41 37 43 47
13 11 10 8 8 7 7 6 6 5 5 5 5 4 4 4 3 7 6 8 11 22 29 34 38 40 45 53 52 50 56 51 41 48 53 51 45 47 44 41 43 40 38 42 48
14 12 11 10 9 7 6 6 6 6 5 5 5 5 5 5 5 6 6 7 10 20 27 32 35 35 37 38 42 48 52 43 42 50 53 57 54 44 49 46 41 38 39 41 45
14 13 12 11 10 8 7 6 6 6 6 5 5 5 4 4 5 5 5 7 10 19 26 27 33 31 36 42 48 51 50 48 45 49 56 55 58 54 53 51 44 37 39 43 47
14 13 12 12 10 9 8 7 6 5 6 6 6 5 4 4 3 5 5 6 9 15 22 24 28 26 38 42 50 52 56 57 50 49 55 60 63 64 60 56 46 40 40 43 47
15 14 13 12 11 10 8 7 7 6 6 6 6 7 5 4 4 4 5 4 7 12 16 21 24 26 39 43 47 53 56 54 57 51 51 54 66 55 51 55 57 49 38 40 46
15 14 13 12 11 10 8 10 13 12 12 11 9 7 5 6 6 5 5 4 6 9 12 17 23 28 37 40 44 49 53 53 61 60 62 60 61 47 49 50 56 55 51 45 42
15 14 14 13 12 10 9 14 13 14 14 12 10 8 6 7 7 5 5 4 6 8 11 16 23 31 37 40 38 43 49 49 56 61 78 66 60 59 50 53 51 55 56 52 48
15 14 14 13 12 10 11 14 15 16 13 10 10 9 8 9 9 6 5 5 7 9 11 17 23 26 32 40 40 45 44 45 55 56 70 69 63 61 56 44 52 54 55 53 52
15 14 14 13 12 12 16 14 15 15 13 9 9 9 7 8 9 7 6 7 7 8 11 13 21 26 29 33 32 37 42 46 57 58 56 58 64 61 56 56 55 52 53 53 54
15 14 14 14 11 15 17 15 15 13 17 14 11 8 8 9 9 6 7 7 8 8 11 12 19 22 24 30 31 33 35 43 48 49 52 52 59 57 57 56 54 53 55 56 54
16 14 14 15 14 15 15 15 14 14 23 15 14 13 10 9 9 8 7 7 7 9 11 11 16 18 20 26 26 27 35 40 44 43 49 50 52 51 55 58 50 49 46 51 49
18 16 14 14 14 13 13 13 13 18 19 15 15 15 14 13 10 10 8 8 8 9 9 10 12 12 15 18 22 27 35 38 45 43 48 49 46 47 48 45 44 44 47 48 50
19 16 15 15 15 15 14 13 18 24 19 19 19 17 15 13 13 11 10 10 10 10 9 10 10 11 11 12 15 21 29 31 35 52 54 52 50 46 38 41 43 42 46 43 44
20 17 15 17 17 17 15 17 22 18 22 21 20 19 18 15 13 11 11 11 10 10 10 10 10 8 11 13 15 14 20 29 33 49 58 52 54 44 37 38 38 31 38 40 36
23 18 16 18 17 17 15 21 19 20 24 22 22 22 21 20 17 17 13 11 11 10 11 10 9 10 10 11 13 14 15 21 29 45 58 55 48 41 41 38 33 35 33 35 35
24 22 25 19 20 18 20 20 14 21 24 22 24 24 28 23 22 20 17 14 12 11 11 11 10 9 10 11 14 13 15 18 29 35 44 54 53 49 40 40 37 38 39 34 33
25 31 28 27 26 22 24 21 13 19 26 25 24 25 26 26 24 23 23 18 16 12 12 12 11 9 12 14 14 15 16 18 25 35 41 54 48 40 37 37 34 34 33 40 36
26 35 34 34 32 29 26 20 15 26 33 30 25 23 25 25 28 24 26 25 23 21 14 12 13 11 13 15 14 14 15 19 23 24 38 41 38 36 35 35 39 35 30 29 33
29 36 38 38 38 36 29 25 23 33 38 34 29 25 24 24 27 27 30 27 27 22 14 14 14 14 12 15 15 15 16 19 20 21 32 36 37 36 36 38 38 39 37 33 33
33 44 45 45 43 40 35 32 26 35 41 38 33 25 21 23 27 30 31 28 28 27 18 15 15 14 15 14 17 17 15 16 21 23 22 29 33 38 40 39 34 39 39 37 34
38 49 54 56 51 48 42 41 40 44 39 34 33 26 22 21 27 30 32 31 30 31 30 20 19 16 14 14 14 15 15 15 17 18 20 20 27 36 35 33 31 30 39 37 37
44 48 54 56 56 54 52 49 47 42 45 42 40 36 31 20 28 33 37 35 35 35 36 31 26 22 17 16 15 14 14 16 14 14 17 23 25 26 29 28 29 33 40 44 45
45 48 52 56 56 60 58 55 52 45 42 47 51 45 42 33 28 29 35 38 36 38 40 41 40 33 28 22 17 14 30 23 20 28 23 24 23 26 26 27 29 30 36 42 45

GFSSW_prec_cthk_291.txt.gz
RH
9 8 8 7 7 7 7 7 7 6 6 5 5 5 4 4 3 4 10 19 26 28 34 40 46 54 58 57 59 59 65 63 64 68 60 59 61 65 60 52 45 43 48 42 46
9 9 8 8 7 7 7 7 7 6 6 5 5 4 4 3 4 4 8 14 21 27 39 40 43 51 52 55 58 60 58 56 57 68 61 60 58 61 59 56 54 45 41 47 50
10 9 9 8 7 7 7 6 6 6 6 5 5 4 4 4 8 7 8 12 21 30 36 36 39 44 47 50 55 61 57 54 48 56 54 49 54 61 57 53 48 43 37 43 47
11 10 9 8 8 7 7 6 6 6 5 5 5 4 4 4 10 8 10 14 22 26 32 35 38 42 50 54 54 61 57 57 50 56 64 52 48 55 51 44 42 39 36 41 46
13 12 10 9 8 7 7 6 6 6 5 5 5 5 4 4 6 8 9 15 21 24 30 35 39 37 46 45 51 58 55 52 52 53 52 60 53 50 46 44 46 41 39 44 47
13 12 11 10 9 8 7 6 6 5 5 5 5 5 5 5 5 6 7 17 21 22 29 33 31 33 41 44 53 54 52 50 52 54 55 57 53 49 42 45 46 40 41 46 48
13 13 12 11 10 9 8 7 6 5 5 5 5 5 5 4 6 6 5 8 19 21 25 30 29 32 40 44 51 53 55 53 54 55 60 59 58 52 46 42 45 41 40 44 46
13 13 12 11 10 9 8 7 6 5 5 5 6 5 4 4 4 5 5 7 15 19 23 27 25 36 38 43 49 49 56 60 62 56 61 66 69 62 52 47 45 45 42 44 45
14 13 12 11 10 9 8 7 9 8 7 6 6 6 4 4 4 4 4 6 11 17 19 22 25 37 36 44 49 52 57 56 62 60 63 64 69 60 51 50 46 46 52 49 45
14 13 13 12 10 9 8 11 11 11 11 10 10 8 5 6 6 5 5 5 7 13 18 18 24 35 40 42 46 46 50 53 53 58 56 63 65 58 57 53 54 49 47 54 51
13 13 13 12 11 10 11 11 12 12 12 12 11 9 8 7 7 7 6 4 6 8 12 15 19 36 39 37 37 41 48 53 54 56 48 51 54 53 56 56 54 59 52 51 53
15 13 12 13 11 10 13 14 16 17 14 9 9 9 8 9 9 7 6 5 5 7 10 14 18 32 36 36 35 37 46 55 56 53 47 46 50 51 52 52 56 57 59 52 51
16 14 13 13 12 12 14 15 15 14 13 8 9 9 8 9 9 7 6 6 7 8 10 13 23 22 27 36 33 32 37 47 53 55 50 53 52 49 52 51 52 55 55 53 50
17 15 13 13 13 13 16 16 15 13 16 13 11 10 9 10 9 7 8 7 7 8 10 14 25 24 25 28 26 30 27 41 49 51 50 53 57 49 51 51 48 49 50 51 51
18 16 13 13 13 13 16 15 14 14 16 16 14 13 10 9 9 9 8 8 7 8 9 10 14 23 22 22 21 22 34 41 45 49 47 52 59 50 51 50 48 41 43 47 47
19 18 15 13 12 13 13 13 12 17 14 17 17 16 16 13 10 10 9 8 8 8 9 11 16 18 21 19 18 24 32 41 47 46 48 50 51 46 51 46 41 39 37 40 45
21 18 16 15 14 14 14 12 17 22 16 19 18 18 17 15 14 12 11 10 10 10 9 9 11 14 17 19 19 21 29 34 34 42 45 47 47 45 40 43 42 40 38 43 47
28 18 16 15 15 16 15 14 20 16 23 20 19 19 17 17 14 14 13 12 11 10 11 11 10 10 13 18 21 20 24 28 31 36 39 43 44 38 41 41 37 36 37 47 48
28 21 18 16 17 17 18 18 15 20 24 22 20 22 20 20 18 16 14 13 11 11 11 12 10 9 10 13 13 15 16 17 30 42 43 44 42 37 35 37 35 34 37 41 43
24 20 26 23 19 18 19 18 15 17 23 22 25 25 24 22 22 19 17 15 13 12 11 11 11 11 11 11 12 13 15 18 23 37 41 43 47 45 34 34 34 31 33 38 37
22 26 28 25 23 21 21 21 17 13 21 26 28 28 27 23 22 22 22 22 19 14 13 12 12 11 12 12 14 15 16 19 22 27 36 41 40 38 34 34 31 30 27 24 27
23 30 31 32 31 32 30 27 22 18 24 30 32 31 28 26 24 23 24 24 25 23 17 13 13 12 13 13 14 15 15 16 20 21 34 38 35 31 31 33 33 32 29 24 24
25 30 35 38 39 39 36 30 25 22 29 34 31 31 31 28 26 25 29 26 28 30 17 15 15 14 13 15 15 15 16 17 20 23 31 34 33 29 30 29 31 32 33 31 29
30 41 40 40 41 42 41 36 32 28 35 38 34 31 30 29 26 27 32 28 31 33 24 15 15 15 14 14 15 15 16 16 18 21 24 27 24 26 29 30 27 30 32 35 34
36 47 50 50 48 48 44 42 38 36 38 41 39 36 30 27 25 24 34 36 35 36 33 21 16 15 16 16 16 16 20 16 16 18 19 18 24 24 24 28 25 24 29 34 35
43 44 51 53 52 52 50 48 46 45 45 44 46 45 37 32 30 26 31 38 39 38 38 32 29 25 24 22 19 30 30 27 24 34 22 22 23 28 28 30 27 24 27 32 34
45 45 47 52 54 54 56 55 53 53 48 48 46 46 43 36 32 29 27 35 40 39 39 41 37 34 27 25 23 22 35 35 36 37 38 33 30 31 27 28 28 28 27 34 33